Location: Lynch Observatory
(39.9540°N, 75.1861°W)
Time: 08:37:54
(UTC-04:00)

CAS-4A - Visible Passes

Search period start: 22 April 2024 00:00
Search period end: 02 May 2024 00:00
Orbit: 479 x 496 km, 43.0° (Epoch: 22 April)

Date Brightness Start Highest point End Pass type
(mag) Time Alt. Az. Time Alt. Az. Time Alt. Az.
22 Apr ? 04:12:41 50° NW 04:13:16 57° N 04:17:03 10° ENE visible
23 Apr ? 03:47:26 52° NNE 03:47:26 52° NNE 03:50:45 10° ENE visible
23 Apr ? 05:22:31 10° WNW 05:26:18 61° N 05:30:06 10° E visible
24 Apr ? 03:22:11 31° ENE 03:22:11 31° ENE 03:24:24 10° ENE visible
24 Apr ? 04:56:30 12° WNW 04:59:58 60° N 05:03:45 10° E visible
25 Apr ? 02:56:56 18° ENE 02:56:56 18° ENE 02:58:00 10° ENE visible
25 Apr ? 04:31:15 22° WNW 04:33:33 60° N 04:37:20 10° E visible
26 Apr ? 04:06:03 42° NW 04:07:05 60° N 04:10:52 10° E visible
27 Apr ? 03:40:56 56° NE 03:40:56 56° NE 03:44:20 10° E visible
27 Apr ? 05:15:55 10° WNW 05:19:36 49° SSW 05:23:17 10° SE visible
28 Apr ? 03:15:57 26° E 03:15:57 26° E 03:17:46 10° E visible
28 Apr ? 04:50:18 17° W 04:53:01 49° SSW 04:56:42 10° SE visible
29 Apr ? 04:25:35 41° WSW 04:26:23 50° SSW 04:30:04 10° SE visible
30 Apr ? 04:01:12 30° SSE 04:01:12 30° SSE 04:03:23 10° SE visible
01 May ? 05:11:37 11° SW 05:11:37 11° SW 05:12:12 10° SSW visible
01 May ? 20:29:22 10° SSE 20:30:25 11° SE 20:31:28 10° ESE visible
01 May ? 22:05:11 10° SW 22:06:20 19° SW 22:06:20 19° SW visible
